Flag for Germany Weather past 2 weeks in Bielefeld, North Rhine-Westphalia, Germany

Now
46 °F

Overcast.


Feels Like: 42 °F
Forecast: 33 / 57 °F
Wind: 6 mph from West

Location: Bad Lippspringe

Current Time: Apr 28, 2015 at 4:56:54 PM

Latest Report: Apr 28, 2015 at 4:00 PM


Visibility: 7 mi

Pressure: 30.03 "Hg

Humidity: 78%

Dew point: 39 °F

Location of BielefeldLocation

Historic Weather in Bielefeld — Graph

°F

Bielefeld temperature yesterday

Maximum temperature yesterday: 53 °F (at 12:00 AM)
Minimum temperature yesterday: 44 °F (at 12:00 PM)
Average temperature yesterday: 48 °F

Past Weeks' High & Low Weather Summary

 TemperatureHumidityPressure
High72 °F (Apr 15, 5:00 PM)98% (Apr 23, 6:00 AM)30.45 "Hg (Apr 23, 6:00 AM)
Low30 °F (Apr 28, 6:00 AM)24% (Apr 21, 5:00 PM)29.60 "Hg (Apr 27, 5:00 AM)
Average49 °F71%30.09 "Hg
* Reported Apr 13 3:00 PM — Apr 28 3:00 PM, Bielefeld, Weather by CustomWeather, © 2015

Note: Actual official high and low records may vary slightly from our data, if they occured in-between our weather recording intervals... More about our weather records

Advertising

Bielefeld weather history for previous 24 hours

 ConditionsComfort  
Time TempWeatherWind HumidityBarometerVisibility
3:00 PM
Tue, Apr 28
53 °FScattered clouds.5 mph49%29.98 "Hg15 mi
2:00 PM51 °FSunny.6 mph42%29.98 "Hg17 mi
1:00 PM50 °FPassing clouds.3 mph56%29.98 "Hg16 mi
12:00 PM45 °FPassing clouds.6 mph57%29.98 "Hg14 mi
11:00 AM44 °FPassing clouds.3 mph61%29.97 "Hg15 mi
10:00 AM42 °FSunny.2 mph73%29.96 "Hg17 mi
9:00 AM38 °FSunny.1 mph82%29.95 "Hg9 mi
8:00 AM35 °FOvercast.1 mph87%29.93 "Hg9 mi
7:00 AM31 °FSunny.1 mph98%29.92 "Hg7 mi
6:00 AM30 °FClear.1 mph98%29.90 "Hg8 mi
5:00 AM32 °FClear.2 mph97%29.89 "Hg11 mi
4:00 AM34 °FPassing clouds.2 mph94%29.87 "Hg11 mi
3:00 AM36 °FClear.1 mph87%29.86 "Hg18 mi
2:00 AM38 °FClear.2 mph86%29.86 "Hg19 mi
1:00 AM40 °FClear.3 mph80%29.85 "Hg19 mi
12:00 AM42 °FOvercast.3 mph80%29.83 "Hg22 mi
11:00 PM
Mon, Apr 27
45 °FOvercast.5 mph73%29.81 "Hg25 mi
10:00 PM45 °FOvercast.1 mph83%29.81 "Hg19 mi
9:00 PM46 °FOvercast.No wind88%29.79 "Hg13 mi
8:00 PM47 °FOvercast.1 mph84%29.78 "Hg16 mi
7:00 PM47 °FOvercast.2 mph79%29.78 "Hg17 mi
6:00 PM46 °FLight rain. Overcast.2 mph77%29.78 "Hg17 mi
5:00 PM46 °FDrizzle. Overcast.2 mph78%29.77 "Hg19 mi
4:00 PM46 °FLight rain. Overcast.3 mph85%29.78 "Hg5 mi
Weather by CustomWeather, © 2015

See weather overviewHow to use our weather pages